| time (UTC) | temp F | wind direction | speed MPH | gust MPH | rain 1hr in | rain 24hr in | rain mn in | humidity % | barometer mb |
| 20260504213047 | 72 | 129 | 1.0 | 8.0 | 0.00 | 0.00 | 0.00 | 30 | 1004.9 |
| 20260504211624 | 71 | 134 | 1.0 | 12.0 | 0.00 | 0.00 | 0.00 | 31 | 1005.0 |
| 20260504210050 | 72 | 169 | 0.0 | 7.0 | 0.00 | 0.00 | 0.00 | 29 | 1004.9 |
| 20260504204545 | 72 | 222 | 3.0 | 14.0 | 0.00 | 0.00 | 0.00 | 28 | 1005.2 |
| 20260504203044 | 72 | 223 | 1.0 | 8.0 | 0.00 | 0.00 | 0.00 | 26 | 1005.2 |
| 20260504201541 | 73 | 342 | 3.0 | 12.0 | 0.00 | 0.00 | 0.00 | 27 | 1005.4 |
| 20260504200042 | 72 | 328 | 0.0 | 19.0 | 0.00 | 0.00 | 0.00 | 28 | 1005.7 |
| 20260504194547 | 73 | 265 | 3.0 | 13.0 | 0.00 | 0.00 | 0.00 | 28 | 1006.0 |
| 20260504193037 | 72 | 299 | 7.0 | 18.0 | 0.00 | 0.00 | 0.00 | 27 | 1006.3 |
| 20260504191536 | 71 | 271 | 3.0 | 14.0 | 0.00 | 0.00 | 0.00 | 30 | 1006.5 |
| 20260504190030 | 70 | 282 | 5.0 | 14.0 | 0.00 | 0.00 | 0.00 | 32 | 1006.6 |
| 20260504184542 | 70 | 101 | 1.0 | 15.0 | 0.00 | 0.00 | 0.00 | 33 | 1007.1 |
| 20260504183027 | 70 | 333 | 2.0 | 14.0 | 0.00 | 0.00 | 0.00 | 31 | 1007.0 |
| 20260504181524 | 70 | 329 | 1.0 | 15.0 | 0.00 | 0.00 | 0.00 | 33 | 1007.3 |
| 20260504180025 | 68 | 269 | 2.0 | 18.0 | 0.00 | 0.00 | 0.00 | 35 | 1007.5 |
| 20260504174519 | 67 | 284 | 2.0 | 13.0 | 0.00 | 0.00 | 0.00 | 39 | 1007.6 |
| 20260504173017 | 66 | 264 | 1.0 | 9.0 | 0.00 | 0.00 | 0.00 | 40 | 1007.8 |
| 20260504171515 | 66 | 348 | 2.0 | 11.0 | 0.00 | 0.00 | 0.00 | 40 | 1008.1 |
| 20260504081503 | 42 | 165 | 0.0 | 1.0 | 0.00 | 0.00 | 0.00 | 65 | 1011.5 |
| 20260504050001 | 44 | 167 | 0.0 | 0.0 | 0.00 | 0.00 | 0.00 | 60 | 1012.1 |
| 20260504044501 | 44 | 166 | 0.0 | 0.0 | 0.00 | 0.00 | 0.00 | 60 | 1012.3 |
| 20260504043001 | 44 | 166 | 0.0 | 0.0 | 0.00 | 0.00 | 0.00 | 60 | 1012.3 |
| 20260504041601 | 44 | 166 | 0.0 | 0.0 | 0.00 | 0.00 | 0.00 | 63 | 1012.3 |
| 20260504040132 | 44 | 166 | 0.0 | 0.0 | 0.00 | 0.00 | 0.00 | 62 | 1012.1 |
| 20260504034603 | 44 | 166 | 0.0 | 0.0 | 0.00 | 0.00 | 0.00 | 63 | 1012.2 |
| 20260504033058 | 44 | 166 | 0.0 | 0.0 | 0.00 | 0.00 | 0.00 | 60 | 1012.2 |
| 20260504031621 | 46 | 166 | 0.0 | 0.0 | 0.00 | 0.00 | 0.00 | 56 | 1012.3 |
| 20260504030059 | 46 | 166 | 0.0 | 0.0 | 0.00 | 0.00 | 0.00 | 55 | 1012.2 |
| 20260504024605 | 46 | 166 | 0.0 | 0.0 | 0.00 | 0.00 | 0.00 | 54 | 1012.3 |
| 20260504023059 | 47 | 166 | 0.0 | 0.0 | 0.00 | 0.00 | 0.00 | 52 | 1012.3 |
| 20260504021559 | 48 | 166 | 0.0 | 0.0 | 0.00 | 0.00 | 0.00 | 52 | 1012.4 |
| 20260504020110 | 50 | 166 | 0.0 | 0.0 | 0.00 | 0.00 | 0.00 | 48 | 1012.3 |
| 20260504014558 | 50 | 167 | 0.0 | 0.0 | 0.00 | 0.00 | 0.00 | 46 | 1012.1 |
| 20260504013058 | 50 | 167 | 0.0 | 0.0 | 0.00 | 0.00 | 0.00 | 46 | 1011.9 |
| 20260504011556 | 50 | 216 | 0.0 | 0.0 | 0.00 | 0.00 | 0.00 | 46 | 1012.0 |
| 20260504010057 | 51 | 222 | 0.0 | 0.0 | 0.00 | 0.00 | 0.00 | 45 | 1012.1 |
| 20260504004556 | 51 | 246 | 0.0 | 0.0 | 0.00 | 0.00 | 0.00 | 45 | 1011.9 |
| 20260504003056 | 52 | 246 | 0.0 | 0.0 | 0.00 | 0.00 | 0.00 | 43 | 1011.8 |
| 20260504001559 | 52 | 246 | 0.0 | 1.0 | 0.00 | 0.00 | 0.00 | 42 | 1011.8 |
| 20260504000056 | 53 | 360 | 0.0 | 4.0 | 0.00 | 0.00 | 0.00 | 41 | 1011.7 |
| 20260503234624 | 54 | 299 | 5.0 | 11.0 | 0.00 | 0.00 | 0.00 | 39 | 1011.6 |
| 20260503233055 | 55 | 279 | 1.0 | 10.0 | 0.00 | 0.00 | 0.00 | 38 | 1011.4 |
| 20260503231555 | 56 | 299 | 3.0 | 9.0 | 0.00 | 0.00 | 0.00 | 37 | 1011.5 |
| 20260503230056 | 55 | 304 | 4.0 | 16.0 | 0.00 | 0.00 | 0.00 | 37 | 1011.4 |
| 20260503224554 | 56 | 304 | 8.0 | 18.0 | 0.00 | 0.00 | 0.00 | 35 | 1011.3 |
| 20260503223054 | 55 | 326 | 1.0 | 11.0 | 0.00 | 0.00 | 0.00 | 38 | 1011.4 |
| 20260503221559 | 55 | 309 | 5.0 | 16.0 | 0.00 | 0.00 | 0.00 | 38 | 1011.3 |
| 20260503220055 | 55 | 295 | 6.0 | 16.0 | 0.00 | 0.00 | 0.00 | 38 | 1011.5 |
| 20260503214554 | 56 | 302 | 4.0 | 18.0 | 0.00 | 0.00 | 0.00 | 37 | 1011.4 |